www.pogodaiklimat.ru

Погода и климат >> Архив погоды >> Аргентина >> Игуасу


ПОГОДА в Игуасу

  • Прогноз погоды в Игуасу
  • Монитор погоды в Игуасу

АРХИВ ПОГОДЫ в Игуасу

Время (UTC), дата Ветер
(напр.,м/с)
 
Видим.   Явления Облачность Т
(С)
Тd
(С)
f
(%)
Тe
(С)
Тes
(С)
Комфортность P
(гПа)
Po
(гПа)
Тmin
(С)
Tmax
(С)
R
(мм)
R24
(мм)
S
(см)
21 19.03 штиль 0 20 км 4/3 1200 м
[Cu med, cong Ac trans Cs]
+27.9 +21.6 69 +36 +36 очень
душно
1008.8 978.1
00 20.03 штиль 0 20 км 6/0
[Cs]
+23.4 +22.1 92 +32 +32 очень
душно
1010.6 979.7 +20.4 +28.3
03 20.03 штиль 0 20 км 9/0
[Cs]
+22.3 +21.4 95 +29 +29 очень
душно
1010.5 979.7
06 20.03 штиль 0 20 км 10/0
[Ac As Cs]
+22.3 +20.9 92 +29 +29 очень
душно
1009.9 979.3
09 20.03 штиль 0 20 км 10/0
[Ac As Cs]
+21.3 +20.4 95 +27 +27 душно 1009.9 979.3
12 20.03 Ю 2 20 км 10/1 1500 м
[Cb cap Ac As Cs]
+21.6 +20.5 93 +27 +30 душно 1012.7 981.8 +21.0 +23.4
15 20.03 Ю 2 20 км 10/1 1500 м
[Cb cap Ac As Cs]
+22.6 +21.1 91 +30 +37 очень
душно
1012.8 981.8
18 20.03 Ю 4 20 км 10/10 450 м
[]
+23.6 +21.0 85 +30 +30 очень
душно
1011.9 981.0
21 20.03 Ю 4 20 км 9/4 900 м
[Sc Ac As Cs]
+23.4 +20.7 85 +31 +31 очень
душно
1011.5 980.6
00 21.03 Ю 3 20 км 4/0
[Cs]
+20.8 +19.4 92 +26 +26 душно 1013.2 982.1 +20.8 +25.1
03 21.03 Ю 3 20 км ясно +19.5 +19.0 97 +22 +22 комфорт 1014.6 983.4
06 21.03 Ю 3 20 км 4/0
[Cs]
+18.8 +17.8 94 +20 +20 1013.9 982.8
09 21.03 Ю 2 20 км ясно +17.4 +16.4 94 +18 +18 1014.3 983.0
12 21.03 Ю 4 20 км ясно +18.4 +15.0 81 +19 +23 1016.2 984.8 +16.8 +21.0
15 21.03 Ю 3 20 км 1/1 750 м
[Cu hum]
+24.2 +17.2 65 +28 +41 душно 1015.9 984.8
18 21.03 Ю 4 20 км 4/4 900 м
[Cu hum]
+26.7 +17.1 56 +31 +35 душно 1013.5 982.6
21 21.03 Ю 4 20 км 1/1 900 м
[Cu hum]
+26.2 +17.7 60 +31 +31 очень
душно
1013.1 982.1
00 22.03 Ю 3 20 км ясно +20.6 +16.7 78 +24 +24 комфорт 1014.1 982.8 +18.4 +27.0
03 22.03 штиль 0 20 км ясно +20.0 +18.3 90 +23 +23 комфорт 1014.3 983.3
06 22.03 штиль 0 20 км 5/0
[Ac trans]
+17.6 +16.9 96 +18 +18 1013.7 982.6
09 22.03 штиль 0 20 км 6/0
[Ac trans]
+17.0 +16.3 96 +17 +17 1014.1 983.0
12 22.03 СВ 3 20 км 5/3 900 м
[Sc Cs]
+21.4 +18.4 83 +26 +29 душно 1017.0 985.8 +16.2 +21.4
15 22.03 С 4 20 км 8/6 900 м
[Cu Sc Ac As]
+26.7 +19.4 64 +32 +35 очень
душно
1016.7 985.7
18 22.03 С 2 20 км 6/4 900 м
[Cu hum Ac As]
+27.9 +19.7 61 +34 +40 очень
душно
1014.6 983.6
21 22.03 СВ 2 20 км 3/3 1200 м
[Cu med, cong]
+27.4 +21.5 70 +35 +35 очень
душно
1013.9 982.9
00 23.03 штиль 0 20 км 1/1 900 м
[Cu hum]
+22.6 +20.9 90 +30 +30 очень
душно
1014.9 983.8 +21.4 +28.4
03 23.03 штиль 0 20 км ясно +20.4 +18.8 91 +24 +24 комфорт 1015.0 984.1
06 23.03 СВ 2 20 км ясно +18.9 +17.9 94 +21 +21 комфорт 1014.9 984.0
09 23.03 Ю 2 9000 м дымка ясно +18.2 +17.7 97 +19 +19 1015.6 984.6
12 23.03 СВ 3 20 км ясно +22.2 +19.1 83 +28 +32 душно 1017.3 986.2 +18.0 +22.6
15 23.03 С 3 20 км 4/4 600 м
[Cu hum]
+27.7 +21.3 68 +35 +44 очень
душно
1016.8 985.8
18 23.03 штиль 0 20 км 4/4 900 м
[Cu hum]
+29.2 +20.2 58 +36 +45 очень
душно
1013.9 983.0
21 23.03 штиль 0 20 км 3/3 900 м
[Cu hum]
+27.3 +20.9 68 +34 +35 очень
душно
1013.1 982.2
00 24.03 штиль 0 20 км ясно +23.2 +20.1 83 +30 +30 очень
душно
1013.8 982.8 +22.2 +29.5
03 24.03 штиль 0 20 км ясно +22.2 +20.7 91 +29 +29 очень
душно
1014.0 983.3
06 24.03 СВ 2 20 км ясно +21.4 +20.3 93 +27 +27 душно 1013.8 983.0
09 24.03 СВ 2 20 км ясно +20.0 +19.2 95 +24 +24 комфорт 1014.5 983.6
12 24.03 штиль 0 20 км ясно +21.9 +21.0 95 +28 +36 душно 1016.9 985.8 +19.0 +23.2
15 24.03 ЮЗ 2 20 км 4/4 750 м
[Cu hum]
+28.8 +21.3 64 +36 +46 очень
душно
1015.9 985.2
18 24.03 Ю 2 20 км в посл. час ливневой дождь 8/8 900 м
[Cb calv Cs]
+27.7 +22.6 74 +37 +39 очень
душно
1014.2 983.4 0.6
21 24.03 ЮВ 3 20 км 4/0
[Ac As Cs]
+27.3 +22.0 73 +35 +36 очень
душно
1013.3 982.5
00 25.03 штиль 0 20 км ясно +24.7 +22.0 85 +32 +32 очень
душно
1014.0 983.0 +21.9 +30.5
03 25.03 Ю 2 20 км ясно +22.4 +20.9 91 +29 +29 очень
душно
1014.0 983.3
06 25.03 Ю 2 20 км ясно +21.2 +20.4 95 +26 +26 душно 1013.7 982.9
09 25.03 Ю 2 200 м туман ясно +20.0 +20.0 100 +24 +24 комфорт 1014.0 983.0
12 25.03 Ю 2 20 км {туман} ясно +22.1 +19.1 83 +28 +34 душно 1015.6 984.6 +18.5 +24.7 0.6
15 25.03 Ю 4 20 км 1/1 900 м
[Cu hum]
+27.0 +18.0 58 +32 +41 очень
душно
1015.2 984.4
18 25.03 ЮЗ 3 20 км 4/3 1050 м
[Cu hum Ci fib]
+29.3 +18.4 52 +34 +40 очень
душно
1012.9 982.2
21 25.03 ЮЗ 2 20 км 5/1 1050 м
[Cu hum Ci fib]
+27.6 +18.1 56 +32 +32 очень
душно
1013.0 982.2
00 26.03 Ю 1 20 км ясно +22.8 +19.1 80 +29 +29 очень
душно
1014.1 983.0 +22.0 +29.3
03 26.03 Ю 3 20 км ясно +21.6 +19.1 86 +27 +27 душно 1014.5 983.7
06 26.03 Ю 4 20 км ясно +20.2 +19.3 95 +24 +24 комфорт 1014.2 983.4
09 26.03 Ю 2 20 км ясно +16.6 +14.2 86 +17 +17 1015.0 983.8
12 26.03 Ю 3 20 км ясно +18.4 +13.5 73 +19 +24 1017.3 986.0 +15.2 +22.8
15 26.03 ЮВ 3 20 км ясно +26.6 +15.2 50 +29 +43 жарко 1016.4 985.4
18 26.03 Ю 4 20 км ясно +29.0 +15.1 43 +32 +39 душно 1014.6 983.8

 

Местоположение метеостанции Игуасу (Аргентина): широта -25.73 долгота -54.46 высота над уровнем моря 270 м.

В архиве по умолчанию представлена погода в Игуасу за последнюю неделю. Архивные данные за месяц целиком и за предыдущие месяцы, начиная с января 2011 года, Вы можете получить, выбрав интересующий диапазон дат из раскрывающегося списка и нажав кнопку "Ввод!".


*Определитесь, кто Вы:
робот инопланетянин человек

Внимание! Время в таблицах - всемирное. Для получения местного времени необходимо прибавить поправку, которая равна -3 ч.

Смотрите также архив погоды в соседних городах и на ближайших метеорологических станциях:

Погода в Фос-ду-Игуасу (Парана, Бразилия) (15 км)
Погода в Фос-ду-Игуасу (Парана, Бразилия) (27 км)
Погода в Аэропорту Гуарани (Парагвай) (50 км)
Погода в Планарту (Парана, Бразилия) (71 км)
Погода в Дионисио Серкейра (Парана, Бразилия) (103 км)
Погода в Дойс-Визиньюсе (Парана, Бразилия) (136 км)
Погода в Марешал-Кандиду-Рондоне (Парана, Бразилия) (141 км)
Погода в Сан-Мигель-ду-Осте (Санта-Катарина, Бразилия) (151 км)
Погода в Капитан Меса (Парагвай) (152 км)
Погода в Ново-Оризонти (Санта-Катарина, Бразилия) (177 км)

Пояснения к столбцам:

Ветер - указаны скорость ветра в м/с - средняя за 10 мин, порывы в срок и между сроками (в фигурных скобках) и направление, откуда дует ветер: С - северный, СВ - северо-восточный, В - восточный, ЮВ - юго-восточный, Ю - южный, ЮЗ - юго-западный, З - западный, СЗ - северо-западный.
Видимость - горизонтальная дальность видимости в метрах или километрах. При видимости от 1 до 10 км при отсутствии осадков обычно наблюдается дымка, при ухудшении видимости до 1 км и менее - туман. В сухую погоду видимость может ухудшаться дымом, пылью или мглою.
Явления - указаны атмосферные явления, наблюдавшиеся в срок или в последний час перед сроком; фигурными скобками обозначены явления, наблюдавшиеся между сроками (за 1-3 часа до срока); квадратными скобками обозначены град или гололедные отложения с указанием их диаметра в мм.
Облачность - указаны через наклонную черту общая и нижняя облачность в баллах и высота нижней границы облаков в метрах; квадратными скобками обозначены формы облаков: Ci - перистые, Cs - перисто-слоистые, Cc - перисто-кучевые, Ac - высококучевые, As - высокослоистые, Sc - слоисто-кучевые, Ns - слоисто-дождевые, Cu - кучевые, Cb - кучево-дождевые. Подробнее классификацию облаков см. в Атласе облаков (PDF).
T - Температура воздуха - температура, измеренная на высоте 2 м над землей.
Td - Температура точки росы - температура, при понижении до которой содержащийся в воздухе водяной пар достигнет насыщения.
f - Относительная влажность воздуха - влажноcть воздуха, измеренная на высоте 2 м над землей.
Te - Эффективная температура - температура, которую ощущает одетый по сезону человек в тени. Характеристика душности погоды. При расчете учитывается влияние влажности воздуха и скорости ветра на теплоощущения человека.
Tes - Эффективная температура на солнце - температура, которую ощущает человек, с поправкой на солнечный нагрев. Характеристика знойности погоды. Зависит от высоты солнца над горизонтом, облачности и скорости ветра. Ночью, в пасмурную погоду, а также при ветре 12 м/с и более поправка равна нулю.
P - Атмосферное давление - приведенное к уровню моря атмосферное давление.
Po - Атмосферное давление - измеренное на уровне метеостанции атмосферное давление.
Tmin - Минимальная температура - минимум температуры воздуха на высоте 2 м над землей.
Tmax - Максимальная температура - максимум температуры воздуха на высоте 2 м над землей.
R - Количество осадков - Количество выпавших осадков за период времени, мм. При наведении курсора мыши на число - период времени, за который выпало указанное количество осадков.
R24 - Количество осадков - Количество выпавших осадков за 24 часа, мм.
S - Снежный покров - Высота снежного покрова, см. При наведении курсора мыши на число - состояние снежного покрова и степень покрытия местности в баллах.